When you browse on this site, cookies collect data to enhance your experience and personalize the content and advertising you see.
Visit our Privacy Policy to learn more. By continuing to use the site, you agree to this use of cookies and data.
  • In Hungary
  • List of Countries
  • For 7 days
  • Water Temperature
  • Weather Map
  • News
  • Weather Widgets
  • user-avatar
    Login

    Hourly Weather Begunovo

    Today, 22 January, Wednesday

    Time Temperature Precipitation Wind Pressure Humidity
    00:00 -2°C° 0 mm 5 mps 732 mmHg 78%
    01:00 -2°C° 0 mm 5 mps 732 mmHg 78%
    02:00 -2°C° 0 mm 4 mps 732 mmHg 79%
    03:00 -3°C° 0 mm 4 mps 732 mmHg 80%
    04:00 -4°C° 0 mm 5 mps 731 mmHg 80%
    05:00 -4°C° 0 mm 5 mps 730 mmHg 80%
    06:00 -4°C° 0 mm 5 mps 730 mmHg 81%
    07:00 -4°C° 0 mm 5 mps 729 mmHg 82%
    08:00 -4°C° 0 mm 5 mps 729 mmHg 83%
    09:00 -4°C° 0.1 mm 5 mps 728 mmHg 83%
    10:00 -2°C° 0.1 mm 5 mps 728 mmHg 84%
    11:00 -2°C° 0.1 mm 5 mps 727 mmHg 84%
    12:00 -2°C° 0.2 mm 5 mps 727 mmHg 82%
    13:00 -2°C° 0.2 mm 4 mps 727 mmHg 79%
    14:00 -2°C° 0.2 mm 4 mps 727 mmHg 77%
    15:00 -3°C° 0.1 mm 4 mps 727 mmHg 78%
    16:00 -3°C° 0.1 mm 4 mps 728 mmHg 79%
    17:00 -4°C° 0.1 mm 4 mps 728 mmHg 80%
    18:00 -4°C° 0 mm 4 mps 729 mmHg 80%
    19:00 -5°C° 0 mm 4 mps 729 mmHg 80%
    20:00 -6°C° 0 mm 5 mps 730 mmHg 80%
    21:00 -6°C° 0 mm 5 mps 730 mmHg 81%
    22:00 -6°C° 0 mm 6 mps 730 mmHg 81%
    23:00 -6°C° 0 mm 6 mps 731 mmHg 82%

    Tomorrow, 23 January, Thursday

    Time Temperature Precipitation Wind Pressure Humidity
    00:00 -6°C° 0 mm 6 mps 731 mmHg 81%
    01:00 -6°C° 0 mm 6 mps 732 mmHg 80%
    02:00 -8°C° 0 mm 6 mps 733 mmHg 78%
    03:00 -8°C° 0 mm 6 mps 733 mmHg 75%
    04:00 -9°C° 0 mm 6 mps 734 mmHg 73%
    05:00 -9°C° 0 mm 6 mps 734 mmHg 70%
    06:00 -9°C° 0 mm 6 mps 735 mmHg 70%
    07:00 -10°C° 0 mm 6 mps 736 mmHg 69%
    08:00 -10°C° 0 mm 6 mps 737 mmHg 69%
    09:00 -10°C° 0 mm 6 mps 737 mmHg 67%
    10:00 -8°C° 0 mm 5 mps 737 mmHg 65%
    11:00 -8°C° 0 mm 5 mps 738 mmHg 63%
    12:00 -7°C° 0.1 mm 5 mps 738 mmHg 63%
    13:00 -8°C° 0.1 mm 6 mps 738 mmHg 63%
    14:00 -8°C° 0.1 mm 6 mps 738 mmHg 64%
    15:00 -8°C° 0 mm 6 mps 738 mmHg 66%
    16:00 -8°C° 0 mm 6 mps 738 mmHg 69%
    17:00 -8°C° 0 mm 6 mps 739 mmHg 71%
    18:00 -8°C° 0 mm 5 mps 739 mmHg 71%
    19:00 -8°C° 0 mm 4 mps 739 mmHg 71%
    20:00 -7°C° 0 mm 3 mps 740 mmHg 71%
    21:00 -8°C° 0 mm 3 mps 740 mmHg 73%
    22:00 -7°C° 0 mm 2 mps 740 mmHg 76%
    23:00 -7°C° 0 mm 2 mps 740 mmHg 78%

    Day after tomorrow, 24 January, Friday

    Time Temperature Precipitation Wind Pressure Humidity
    00:00 -7°C° 0 mm 2 mps 740 mmHg 80%
    01:00 -7°C° 0 mm 2 mps 740 mmHg 81%
    02:00 -6°C° 0 mm 2 mps 740 mmHg 82%
    03:00 -7°C° 0 mm 3 mps 739 mmHg 85%
    04:00 -7°C° 0 mm 4 mps 738 mmHg 88%
    05:00 -7°C° 0 mm 4 mps 737 mmHg 91%
    06:00 -5°C° 0.1 mm 4 mps 737 mmHg 91%
    07:00 -6°C° 0.1 mm 5 mps 736 mmHg 90%
    08:00 -5°C° 0.1 mm 5 mps 736 mmHg 90%
    09:00 -5°C° 0.3 mm 5 mps 735 mmHg 91%
    10:00 -4°C° 0.3 mm 5 mps 734 mmHg 92%
    11:00 -4°C° 0.3 mm 6 mps 733 mmHg 93%
    12:00 -2°C° 0.1 mm 5 mps 733 mmHg 92%
    13:00 -2°C° 0.1 mm 5 mps 732 mmHg 92%
    14:00 -1°C° 0.1 mm 4 mps 732 mmHg 91%
    15:00 -1°C° 0.2 mm 4 mps 732 mmHg 93%
    16:00 0°C° 0.2 mm 4 mps 731 mmHg 95%
    17:00 0°C° 0.2 mm 5 mps 731 mmHg 97%
    18:00 0°C° 0 mm 4 mps 731 mmHg 95%
    19:00 0°C° 0 mm 4 mps 732 mmHg 94%
    20:00 +1°C° 0 mm 3 mps 732 mmHg 93%
    21:00 0°C° 0 mm 3 mps 732 mmHg 93%
    22:00 0°C° 0 mm 3 mps 732 mmHg 94%
    23:00 -1°C° 0 mm 3 mps 732 mmHg 94%

    25 January, Saturday

    Time Temperature Precipitation Wind Pressure Humidity
    00:00 -1°C° 0 mm 3 mps 732 mmHg 94%
    01:00 -1°C° 0 mm 3 mps 732 mmHg 94%
    02:00 -2°C° 0 mm 3 mps 732 mmHg 94%
    03:00 -1°C° 0 mm 3 mps 731 mmHg 94%
    04:00 -1°C° 0 mm 3 mps 731 mmHg 95%
    05:00 -1°C° 0 mm 3 mps 730 mmHg 96%
    06:00 -1°C° 0 mm 3 mps 730 mmHg 96%
    07:00 0°C° 0 mm 3 mps 730 mmHg 95%
    08:00 0°C° 0 mm 3 mps 730 mmHg 94%
    09:00 0°C° 0 mm 3 mps 730 mmHg 91%
    10:00 -1°C° 0 mm 4 mps 730 mmHg 87%
    11:00 0°C° 0 mm 5 mps 730 mmHg 83%
    12:00 -1°C° 0 mm 5 mps 729 mmHg 80%
    13:00 -1°C° 0 mm 5 mps 729 mmHg 77%
    14:00 -1°C° 0 mm 5 mps 729 mmHg 74%
    15:00 -2°C° 0 mm 6 mps 729 mmHg 77%
    16:00 -3°C° 0 mm 6 mps 728 mmHg 80%
    17:00 -3°C° 0 mm 7 mps 728 mmHg 83%
    18:00 -4°C° 0.2 mm 6 mps 729 mmHg 79%
    19:00 -4°C° 0.2 mm 6 mps 729 mmHg 75%
    20:00 -4°C° 0.2 mm 6 mps 730 mmHg 70%
    21:00 -5°C° 0 mm 6 mps 730 mmHg 72%
    22:00 -5°C° 0 mm 6 mps 731 mmHg 74%
    23:00 -6°C° 0 mm 6 mps 732 mmHg 75%

    26 January, Sunday

    Time Temperature Precipitation Wind Pressure Humidity
    00:00 -6°C° 0 mm 6 mps 733 mmHg 75%
    01:00 -6°C° 0 mm 6 mps 734 mmHg 75%
    02:00 -6°C° 0 mm 6 mps 734 mmHg 74%
    03:00 -6°C° 0 mm 6 mps 735 mmHg 74%
    04:00 -6°C° 0 mm 6 mps 736 mmHg 74%
    05:00 -6°C° 0 mm 5 mps 736 mmHg 74%
    06:00 -6°C° 0 mm 5 mps 737 mmHg 75%
    07:00 -6°C° 0 mm 5 mps 738 mmHg 76%
    08:00 -6°C° 0 mm 5 mps 739 mmHg 77%
    09:00 -6°C° 0 mm 5 mps 740 mmHg 76%
    10:00 -6°C° 0 mm 5 mps 741 mmHg 75%
    11:00 -5°C° 0 mm 5 mps 741 mmHg 74%
    12:00 -4°C° 0 mm 4 mps 742 mmHg 74%
    13:00 -4°C° 0 mm 4 mps 743 mmHg 74%
    14:00 -4°C° 0 mm 3 mps 743 mmHg 74%
    15:00 -4°C° 0 mm 2 mps 743 mmHg 78%
    16:00 -4°C° 0 mm 2 mps 744 mmHg 82%
    17:00 -3°C° 0 mm 1 mps 744 mmHg 86%
    18:00 -3°C° 0 mm 1 mps 744 mmHg 87%
    19:00 -5°C° 0 mm 2 mps 744 mmHg 88%
    20:00 -5°C° 0 mm 2 mps 745 mmHg 89%
    21:00 -5°C° 0 mm 2 mps 745 mmHg 88%
    22:00 -4°C° 0 mm 2 mps 745 mmHg 87%
    23:00 -4°C° 0 mm 2 mps 745 mmHg 86%

    27 January, Monday

    Time Temperature Precipitation Wind Pressure Humidity
    00:00 -5°C° 0 mm 3 mps 744 mmHg 85%
    01:00 -5°C° 0 mm 3 mps 744 mmHg 84%
    02:00 -5°C° 0 mm 3 mps 744 mmHg 84%
    03:00 -4°C° 0 mm 3 mps 743 mmHg 87%
    04:00 -4°C° 0 mm 4 mps 743 mmHg 90%
    05:00 -4°C° 0 mm 4 mps 742 mmHg 93%
    06:00 -3°C° 0.1 mm 4 mps 742 mmHg 94%
    07:00 -3°C° 0.1 mm 4 mps 742 mmHg 95%
    08:00 -3°C° 0.1 mm 4 mps 742 mmHg 96%
    09:00 -3°C° 0.3 mm 4 mps 742 mmHg 94%
    10:00 -2°C° 0.3 mm 4 mps 742 mmHg 92%
    11:00 -2°C° 0.3 mm 4 mps 742 mmHg 90%
    12:00 -2°C° 0 mm 4 mps 741 mmHg 89%
    13:00 -2°C° 0 mm 4 mps 741 mmHg 88%
    14:00 -2°C° 0 mm 4 mps 740 mmHg 87%
    15:00 -2°C° 0 mm 5 mps 740 mmHg 87%
    16:00 -2°C° 0 mm 5 mps 739 mmHg 88%
    17:00 -2°C° 0 mm 5 mps 739 mmHg 88%
    18:00 -2°C° 0 mm 5 mps 739 mmHg 88%
    19:00 -2°C° 0 mm 5 mps 738 mmHg 87%
    20:00 -2°C° 0 mm 5 mps 738 mmHg 87%
    21:00 -2°C° 0 mm 5 mps 738 mmHg 89%
    22:00 -1°C° 0 mm 5 mps 738 mmHg 90%
    23:00 -1°C° 0 mm 5 mps 738 mmHg 92%
    Show more